Tracking 18840 objects as of 19-November-2017
HD Live streaming from Space Station
objects crossing your sky now

ALEXIS

Track ALEXIS now!
10-day predictions
ALEXIS is classified as:


NORAD ID: 22638
Int'l Code: 1993-026A
Perigee: 746.6 km
Apogee: 832.7 km
Inclination: 69.9 °
Period: 100.5 minutes
Semi major axis: 7160 km
RCS: Unknown
Launch date: April 25, 1993
Source: United States (US)
Launch site: AIR FORCE WESTERN TEST RANGE (AFWTR)
aabbcc
Your satellite tracking list
Your tracking list is empty




NASA's NSSDC Master Catalog

Two Line Element Set (TLE):
1 22638U 93026A   14195.23738836 0.00000550  00000-0  19757-3 0    06
2 22638  69.9196 149.2705 0060111 359.1065   0.8935 14.32770503    06
Source of the keplerian elements: McCants